Weather History for Monterey, CA

Change the Weather History Date:

Friday, December 13, 2013

  Actual Average Record
Temperature  
Mean Temperature 46 °F 51 °F  
Max Temperature 56 °F 61 °F 65 °F (2006)
Min Temperature 35 °F 42 °F 35 °F (2013)
Degree Days  
Heating Degree Days 19    
Month to date heating degree days 244  
Since 1 July heating degree days 1011  
Cooling Degree Days 0    
Month to date cooling degree days 0  
Year to date cooling degree days 49  
Moisture  
Dew Point 36 °F    
Average Humidity 74    
Maximum Humidity 93    
Minimum Humidity 55    
Precipitation  
Precipitation 0.00 in - 0.32 in (2002)
Month to date precipitation 0.27  
Year to date precipitation 4.43  
Since 1 July precipitation 1.28  
Sea Level Pressure  
Sea Level Pressure 30.30 in    
Wind  
Wind Speed 4 mph (East)    
Max Wind Speed 9 mph    
Max Gust Speed 10 mph    
Visibility 10 miles    
Events      
T = Trace of Precipitation, MM = Missing Value Source: NWS Daily Summary

Daily Weather History Graph

Daily Weather History Graph

Search for Another Location

Airport:

Trip Planner

Search our weather history database for the weather conditions in past years. The results will help you decide how hot, cold, wet, or windy it might be!

Date:

Astronomy

Dec. 13, 2013 Rise Set
Actual Time 7:11 AM PST 4:52 PM PST
Civil Twilight 6:42 AM PST 5:21 PM PST
Nautical Twilight 6:09 AM PST 5:53 PM PST
Astronomical Twilight 5:38 AM PST 6:25 PM PST
Moon 2:35 PM PST (12/13) 3:43 AM PST (12/13)
Length of Visible Light 10h 38m
Length of Day
9h 41m
Waxing Gibbous, 88% of the Moon is Illuminated
Dec 13
Waxing Gibbous
Dec 17
Full
Dec 25
Last Quarter
Jan 1
New
Jan 7
First Quarter

Hourly Weather History & Observations

Time (PST) Temp. Windchill Dew Point Humidity Pressure Visibility Wind Dir Wind Speed Gust Speed Precip Events Conditions
12:54 AM 41.0 °F 39.0 °F 37.9 °F 89% 30.27 in 10.0 mi East 3.5 mph - N/A   Clear
1:54 AM 39.0 °F 35.7 °F 35.1 °F 86% 30.29 in 10.0 mi East 4.6 mph - N/A   Clear
2:54 AM 39.9 °F 34.5 °F 34.0 °F 79% 30.28 in 10.0 mi East 8.1 mph - N/A   Clear
3:54 AM 39.9 °F - 33.1 °F 77% 30.28 in 10.0 mi Calm Calm - N/A   Clear
4:54 AM 37.0 °F 31.0 °F 32.0 °F 82% 30.29 in 10.0 mi East 8.1 mph - N/A   Clear
5:19 AM 37.4 °F - 33.8 °F 87% 30.25 in 10.0 mi Calm Calm - N/A   Mostly Cloudy
5:51 AM 35.6 °F 31.7 °F 32.0 °F 87% 30.25 in 10.0 mi East 4.6 mph - N/A   Scattered Clouds
5:54 AM 35.1 °F 31.0 °F 30.9 °F 85% 30.30 in 10.0 mi East 4.6 mph - N/A   Partly Cloudy
6:54 AM 37.0 °F 32.4 °F 33.1 °F 86% 30.31 in 10.0 mi East 5.8 mph - N/A   Clear
7:54 AM 39.0 °F 32.8 °F 32.0 °F 76% 30.32 in 10.0 mi East 9.2 mph - N/A   Clear
8:54 AM 44.1 °F 41.5 °F 35.1 °F 71% 30.33 in 10.0 mi East 4.6 mph - N/A   Clear
9:54 AM 51.1 °F - 39.9 °F 66% 30.35 in 9.0 mi WNW 4.6 mph - N/A   Clear
10:54 AM 54.0 °F - 39.0 °F 57% 30.36 in 9.0 mi Calm Calm - N/A   Clear
11:54 AM 55.0 °F - 39.9 °F 57% 30.33 in 9.0 mi NW 4.6 mph - N/A   Clear
12:54 PM 55.0 °F - 41.0 °F 59% 30.29 in 10.0 mi WNW 4.6 mph - N/A   Clear
1:54 PM 54.0 °F - 39.9 °F 59% 30.28 in 9.0 mi Calm Calm - N/A   Clear
2:54 PM 55.0 °F - 39.9 °F 57% 30.28 in 10.0 mi NW 4.6 mph - N/A   Clear
3:54 PM 55.0 °F - 41.0 °F 59% 30.28 in 10.0 mi Calm Calm - N/A   Clear
4:54 PM 51.1 °F - 39.9 °F 66% 30.28 in 8.0 mi Calm Calm - N/A   Clear
5:54 PM 46.0 °F 44.8 °F 39.0 °F 76% 30.29 in 10.0 mi ESE 3.5 mph - N/A   Clear
6:54 PM 44.1 °F 42.5 °F 37.9 °F 79% 30.31 in 10.0 mi East 3.5 mph - N/A   Clear
7:54 PM 42.1 °F 39.2 °F 35.1 °F 76% 30.32 in 10.0 mi East 4.6 mph - N/A   Clear
8:54 PM 41.0 °F 37.1 °F 35.1 °F 79% 30.33 in 10.0 mi East 5.8 mph - N/A   Clear
9:54 PM 39.9 °F 35.8 °F 32.0 °F 73% 30.34 in 10.0 mi East 5.8 mph - N/A   Clear
10:54 PM 41.0 °F - 32.0 °F 70% 30.35 in 10.0 mi Calm Calm - N/A   Clear
11:54 PM 42.1 °F 39.2 °F 30.0 °F 62% 30.34 in 10.0 mi ESE 4.6 mph - N/A   Clear